586  
ASUS43 KFSD 180710  
RWRFSD  
 
WEATHER ROUNDUP FOR SE SOUTH DAKOTA/SW MINNESOTA/NW IOWA  
NATIONAL WEATHER SERVICE SIOUX FALLS SD  
100 AM CST SUN FEB 18 2018  
 
NOTE: "FAIR" INDICATES FEW OR NO CLOUDS BELOW 12,000 FEET WITH NO  
SIGNIFICANT WEATHER AND OR S TO VISIBILITY
.  
 
 
SDZ038>040-050-052>070-180800-  
SOUTHEAST SOUTH DAKOTA  
 
CITY SKY/WX TMP DP RH WIND PRES REMARKS
 
BROOKINGS CLOUDY 22 19 89 SE12 29.93F WCI 10  
CHAMBERLAIN MOCLDY 30 28 90 E18 29.75F WCI 18  
HURON CLOUDY 24 20 84 SE13 29.87F WCI 12  
MADISON CLOUDY 21 21 100 SE10 29.92F WCI 10  
MITCHELL CLOUDY 26 23 88 SE15 29.89F WCI 14  
SIOUX FALLS CLOUDY 24 21 88 SE9 29.96F WCI 14  
WINNER FAIR 33 24 69 S25G36 29.67F WCI 20  
YANKTON CLOUDY 24 22 91 E9 29.94F WCI 14  

 
 
MNZ071-072-080-081-089-090-097-098-180800-  
SOUTHWEST MINNESOTA  
 
CITY SKY/WX TMP DP RH WIND PRES REMARKS
 
FAIRMONT CLOUDY 15 13 91 SW7 30.08R WCI 5  
JACKSON CLOUDY 19 18 93 SW8 30.05R WCI 9  
LUVERNE CLOUDY 16 14 93 SE5 29.98F WCI 9  
MARSHALL CLOUDY 22 18 85 S8 30.02F WCI 12  
MONTEVIDEO MOCLDY 19 12 73 SW3 30.03S  
PIPESTONE CLOUDY 21 18 86 SE6 29.95F WCI 14  
REDWOOD FALLS CLOUDY 18 14 84 S5 30.04R WCI 11  
TRACY PTCLDY 23 20 88 SW6 30.01S WCI 16  
WINDOM PTCLDY 16 3 57 S3 30.03S  
WORTHINGTON CLOUDY 17 16 95 S7 30.02F WCI 8  

 
 
IAZ001>003-012>014-020>022-031-032-NEZ013-014-SDZ071-180800-  
NORTHWEST IOWA  
 
CITY SKY/WX TMP DP RH WIND PRES REMARKS
 
CHEROKEE CLOUDY 21 21 100 E5 30.02F WCI 15  
DENISON CLEAR 25 25 100 SE7 30.07F WCI 17  
ESTHERVILLE CLOUDY 15 14 95 SW7 30.07R WCI 5  
LE MARS CLOUDY 25 23 93 SE8 30.00F WCI 16  
ORANGE CITY CLOUDY 21 21 100 E7 29.98F WCI 13  
SHELDON MOCLDY 12 12 100 E10 29.98F WCI -1  
SIOUX CITY PTCLDY 23 22 96 SE10 30.02F WCI 12  
SPENCER PTCLDY 16 13 88 S5 30.05F WCI 9  
STORM LAKE CLOUDY 21 21 100 SE6 30.03F WCI 14  

 
 
ABBREVIATIONS USED IN REMARKS  
TC - TEMPERATURE IN CELSIUS  
WCI - WIND CHILL INDEX  
HX - HEAT INDEX  
VSB - VISIBILITY  
 
 
 
CLICK HERE TO GO TO PREVIOUS BULLETINS.

The Nexlab SD Page
The Nexlab IA Page
The Nexlab MN Page
The Nexlab NE Page Main Text Page